Probability
17 20 23 21 19 18 21 23 20 15 13 11 8 5 3 2 1 2 2 1 0 0 0 0 0 0 0 0 0 0 0 0 0 0 0 0 0 0 0 0 0 0 0
19 23 25 23 19 18 19 20 19 16 14 12 10 7 4 1 0 1 1 0 0 0 0 0 0 0 0 0 0 0 0 0 0 0 0 0 0 0 0 0 0 0 0
21 24 25 24 21 19 19 18 18 17 16 15 15 12 6 1 0 1 1 1 1 0 0 1 1 1 0 0 0 0 0 0 0 0 0 0 0 0 0 0 0 0 0
20 21 23 22 21 20 20 19 20 21 22 21 19 14 7 3 1 1 2 2 2 1 2 3 3 2 2 2 2 2 2 2 1 1 0 0 0 0 0 0 0 0 0
16 17 19 21 21 22 24 26 27 28 29 27 22 15 9 5 3 3 3 2 3 3 4 5 4 3 4 5 5 5 5 5 4 3 1 0 0 0 0 0 0 0 0
14 14 17 21 24 26 30 35 36 35 33 30 24 18 12 9 6 4 3 3 3 3 4 5 6 6 6 7 7 6 6 6 6 4 2 1 0 0 0 0 0 0 0
16 15 18 24 29 33 38 42 43 40 35 30 25 20 16 12 8 5 4 4 4 4 4 5 7 8 8 8 7 6 6 6 5 4 3 2 1 0 0 0 0 0 0
20 20 22 26 31 38 45 48 47 41 37 32 27 23 19 15 10 7 5 4 4 4 4 6 7 7 7 7 6 5 6 5 4 3 3 3 3 1 0 0 0 0 0
28 27 26 28 33 39 47 51 47 41 38 36 31 27 23 18 13 8 6 4 4 5 7 6 5 4 4 4 4 4 5 4 3 3 3 3 3 2 1 0 0 0 0
33 35 34 33 35 40 45 47 45 42 39 37 34 30 25 19 13 8 6 6 6 9 10 8 6 4 3 4 4 4 4 3 3 3 3 3 2 2 1 0 0 0 0
33 37 41 42 40 40 40 43 44 43 41 39 36 31 23 17 12 8 7 9 11 11 11 10 9 7 5 5 6 5 4 3 3 3 2 1 1 1 0 0 1 1 1
30 34 40 44 43 40 38 42 45 44 42 41 37 29 20 15 13 11 10 12 12 11 10 10 9 8 6 5 6 6 5 4 3 1 1 0 0 0 0 0 1 2 2
32 33 36 40 42 40 39 43 44 41 39 39 33 25 18 16 16 14 13 13 11 9 8 7 6 6 5 4 5 6 6 5 3 1 0 0 0 0 0 0 1 3 3
36 35 36 37 39 38 38 38 37 34 32 32 27 21 17 17 18 15 13 12 9 7 6 4 4 4 5 5 5 6 6 5 3 1 0 0 1 1 1 1 1 2 3
35 35 35 35 35 34 31 30 29 26 26 26 23 19 17 17 17 15 13 11 9 7 6 4 3 4 5 5 4 4 5 5 3 1 1 1 2 2 2 1 1 1 3
32 33 33 34 34 31 28 26 23 22 22 23 21 19 18 18 18 18 16 13 10 9 7 5 4 5 6 4 3 3 4 5 5 4 2 2 3 3 3 2 1 1 3
30 32 33 33 32 31 31 28 23 21 22 23 22 22 22 22 22 20 17 14 12 11 8 6 6 6 5 4 2 2 3 5 6 6 5 3 3 4 5 4 2 1 1
28 30 31 31 31 32 32 28 24 22 23 23 24 25 25 25 23 19 16 13 11 10 9 8 8 8 6 4 3 2 2 3 4 5 4 4 4 4 5 4 2 0 0
26 27 30 31 32 31 29 26 24 22 20 20 23 25 25 24 20 16 14 11 9 8 9 8 8 8 7 5 3 1 1 2 2 1 2 2 2 3 2 2 1 0 0
27 28 31 33 30 27 26 25 23 20 15 15 19 22 22 19 16 14 11 9 7 6 6 6 5 5 5 4 3 1 2 2 1 1 0 0 1 1 0 0 0 0 0
29 30 32 30 24 22 24 24 21 17 13 12 16 18 18 16 14 12 10 8 6 4 4 4 3 3 3 3 2 1 2 2 2 2 1 0 0 0 0 0 0 0 0
29 29 29 25 19 19 22 21 17 15 13 12 15 16 15 14 14 12 10 7 5 3 3 3 3 3 3 3 1 0 1 1 2 2 1 0 0 0 0 0 0 0 0
28 26 23 21 18 18 20 18 15 14 14 13 14 16 15 13 12 11 9 6 4 3 3 3 3 3 3 2 1 0 0 0 1 1 1 0 0 0 0 0 0 0 0
26 23 20 19 19 18 19 18 16 16 15 14 13 14 15 12 9 8 7 6 4 2 2 2 3 3 3 1 0 0 0 0 0 0 0 0 0 0 0 0 0 0 0
24 21 18 17 18 19 20 19 17 16 16 13 11 12 13 10 6 4 4 4 3 1 0 1 1 2 2 1 0 0 0 0 0 0 0 0 0 0 0 0 0 0 0
23 20 16 16 17 19 20 19 17 16 14 11 9 10 10 7 3 2 2 2 1 0 0 0 0 1 1 0 0 0 0 0 0 0 0 0 0 0 0 0 0 0 0
Wind_Speed
10 12 12 12 10 9 9 9 9 7 6 4 3 3 2 2 2 3 5 5 4 4 3 2 2 2 1 2 2 2 1 1 1 1 1 2 1 2 3 3 3 5 5
8 10 11 11 11 11 10 10 10 9 7 5 4 3 3 2 3 3 3 4 4 4 4 3 2 2 1 1 2 2 1 1 1 2 1 2 3 2 1 2 3 4 4
12 12 11 11 10 10 11 11 10 9 8 6 3 2 2 1 1 2 2 3 4 4 3 4 3 3 2 2 3 2 3 2 1 2 3 2 2 2 2 2 2 3 3
11 11 11 11 12 12 11 9 10 9 8 8 6 6 5 4 4 3 3 3 4 5 5 4 4 3 3 3 3 3 3 3 2 1 1 2 3 2 2 3 2 3 3
13 14 14 13 12 11 10 9 9 8 8 8 8 7 5 4 3 3 3 3 3 4 5 5 4 4 3 4 3 3 3 3 3 2 1 1 1 2 2 2 3 2 2
13 13 12 10 9 10 9 9 9 9 8 8 8 8 7 6 5 4 4 3 2 3 4 4 4 4 4 4 4 3 3 3 3 2 2 2 2 2 3 3 3 2 3
11 11 11 11 11 11 11 10 11 9 9 8 8 8 7 7 7 5 5 4 3 3 4 4 4 3 4 4 4 3 3 3 3 3 3 3 3 3 3 3 2 2 2
10 11 12 13 12 12 11 11 11 10 9 9 8 7 7 5 4 5 4 4 3 3 4 3 4 4 4 4 3 2 3 2 3 4 3 3 3 3 3 3 3 1 1
8 9 9 10 11 11 11 11 11 9 9 9 8 6 6 5 5 4 4 3 3 3 4 4 4 3 3 3 3 2 2 2 3 3 3 2 2 2 2 2 3 3 2
7 7 6 8 9 9 8 8 9 9 7 7 7 6 5 5 5 4 4 4 4 3 3 3 3 3 2 3 2 2 2 2 2 2 2 2 2 1 2 2 2 3 4
7 7 6 6 6 7 7 7 7 6 6 6 5 5 4 4 4 4 4 3 3 3 3 3 3 3 2 2 2 2 2 2 2 2 2 3 2 2 2 1 2 2 3
5 6 7 7 6 5 6 6 6 6 5 6 5 5 4 4 4 3 3 3 3 3 3 3 3 3 2 2 2 2 2 2 2 2 1 2 1 1 1 1 2 2 2
6 6 6 6 6 6 5 5 5 5 5 5 5 4 4 4 4 3 3 3 3 3 3 3 3 2 2 2 2 2 1 1 2 1 1 2 1 1 1 1 1 1 1
6 6 6 6 6 5 5 5 5 5 5 5 5 4 4 4 4 3 3 3 3 3 3 2 2 2 2 1 1 1 1 1 1 1 1 1 2 2 2 1 1 1 1
7 6 5 5 6 6 5 5 5 5 5 6 5 4 4 3 3 3 3 3 3 3 3 3 2 1 1 1 1 1 1 1 0 1 1 1 0 0 1 1 2 2 1
7 6 5 6 5 5 5 5 5 4 5 6 5 5 4 3 3 3 3 3 3 3 3 3 2 1 1 1 2 2 1 1 1 1 1 2 2 3 3 3 3 3 3
6 7 6 6 6 5 5 5 5 4 5 5 4 4 4 4 4 4 3 3 3 3 3 2 2 2 2 3 3 4 2 2 1 1 1 1 2 2 2 3 5 4 3
6 5 4 4 4 4 4 4 5 5 5 5 4 4 4 4 4 4 4 3 3 3 3 2 3 3 2 4 4 4 3 3 2 2 2 2 2 2 2 2 3 3 3
5 4 4 5 5 5 5 6 6 5 5 4 4 4 5 5 5 4 4 3 3 3 3 3 3 3 2 3 4 4 3 3 3 3 3 3 2 4 4 3 3 3 3
5 5 4 5 6 4 5 7 5 5 4 3 3 4 5 5 5 5 4 3 4 3 3 3 3 3 3 4 4 4 3 3 2 3 3 5 5 5 4 3 4 4 2
6 5 6 5 4 4 6 7 5 3 2 3 4 4 4 4 5 5 4 4 4 4 4 4 3 3 3 3 4 4 3 3 3 3 2 3 5 6 6 5 4 4 3
5 5 6 5 4 4 6 7 4 2 3 4 4 4 4 3 4 5 5 5 5 5 4 4 4 3 3 4 4 5 5 4 4 2 2 3 6 7 7 6 6 7 5
5 5 6 6 5 4 5 6 3 3 4 5 4 4 5 4 4 5 5 4 4 4 3 3 3 2 2 3 5 6 6 6 4 3 6 6 7 7 6 7 7 5 4
5 5 7 6 5 3 4 4 4 4 5 6 5 5 6 6 5 4 4 4 4 4 3 3 3 2 2 2 3 3 4 5 5 4 5 7 8 7 6 6 5 4 3
4 5 6 6 4 4 4 4 4 5 6 5 5 5 5 6 6 6 5 4 3 2 4 3 3 3 2 1 3 4 3 3 4 4 4 5 4 4 4 4 4 3 3
5 6 6 6 5 4 4 3 3 4 6 5 4 4 4 4 5 6 7 11 9 9 8 6 5 4 4 6 7 7 7 7 8 6 5 4 3 3 3 3 4 4 4
Wind_Direction
181 172 172 171 168 169 169 169 167 172 163 155 156 156 173 176 169 179 182 181 184 181 176 183 181 171 167 183 173 153 150 181 137 87 6 332 278 216 202 196 189 202 205
172 173 173 174 176 177 176 174 174 175 175 174 168 165 165 180 182 184 188 193 187 183 184 182 182 184 178 183 185 162 146 183 137 130 102 352 339 319 236 203 201 204 201
178 177 177 180 179 183 183 184 181 177 179 173 155 147 120 99 150 190 200 208 190 185 189 185 178 185 184 198 205 183 169 185 210 155 149 157 227 293 307 251 222 213 209
179 179 184 187 189 190 184 185 183 178 179 173 172 171 178 189 201 193 197 209 199 189 186 185 187 189 189 201 208 195 181 170 193 210 193 183 170 169 293 311 274 234 224
181 184 188 191 192 189 181 182 180 180 182 180 179 181 189 195 189 182 190 206 213 204 194 190 186 190 193 200 204 195 184 175 182 191 193 203 193 167 170 265 296 299 256
185 189 187 178 184 185 179 178 179 187 188 185 183 186 190 188 181 189 192 204 222 220 211 199 192 199 199 202 206 201 192 192 193 194 189 180 182 195 185 218 246 264 274
182 184 181 177 181 185 183 180 182 189 191 189 189 192 193 188 191 193 195 196 206 216 221 207 198 203 205 204 203 200 206 198 199 205 210 205 208 192 182 187 218 244 281
183 187 188 185 185 185 182 181 184 188 191 192 193 193 191 188 193 193 190 197 200 210 212 205 201 200 200 205 198 201 207 202 209 221 217 218 224 203 191 182 174 207 298
183 181 181 182 181 182 182 182 183 186 190 191 188 188 187 185 189 188 184 193 201 208 204 201 198 199 199 200 187 197 210 205 212 223 224 222 232 215 204 190 178 176 216
164 161 171 177 177 177 173 172 179 186 183 181 182 183 182 186 186 180 187 194 199 197 186 195 193 189 193 196 187 197 213 205 227 221 220 235 245 244 219 201 202 188 186
155 157 160 161 161 156 157 164 169 169 168 169 167 169 170 177 175 180 190 190 188 179 176 178 170 169 176 181 180 201 201 206 231 237 225 240 231 227 234 210 195 194 181
139 148 148 142 132 139 149 154 156 159 163 162 160 166 166 169 174 182 188 183 176 172 164 159 160 168 171 177 184 211 210 202 225 246 241 255 238 219 229 202 201 199 195
111 125 132 134 138 136 137 141 151 157 155 149 152 156 164 165 172 179 175 163 158 157 147 146 157 167 174 180 197 202 206 212 233 246 247 255 214 242 241 195 200 206 201
109 115 118 126 132 134 137 144 156 157 147 142 148 156 171 172 170 165 156 157 158 153 150 149 156 168 168 171 185 170 184 224 264 266 242 246 221 228 228 215 210 179 151
106 115 120 130 132 129 135 150 148 143 146 144 152 171 166 159 152 151 150 141 142 143 135 134 136 153 154 165 152 160 155 168 0 19 0 341 42 138 200 180 170 156 148
124 126 124 127 133 139 145 147 146 145 140 148 160 162 151 149 149 146 137 128 128 131 128 131 131 125 122 85 97 122 132 110 101 71 29 19 32 49 67 100 124 135 152
123 130 140 141 152 154 149 153 153 145 140 140 147 147 148 152 149 145 134 134 134 125 122 127 123 117 98 86 89 103 113 93 86 95 76 51 53 53 69 72 71 68 76
128 132 134 128 130 130 132 133 123 128 132 130 132 143 147 146 140 134 133 136 125 119 120 115 118 116 90 89 93 91 91 82 65 61 66 75 44 34 68 81 71 61 42
139 146 133 121 109 109 121 118 113 115 120 129 137 147 144 140 137 138 139 132 118 108 105 106 109 104 81 78 88 93 91 79 61 50 54 72 63 38 66 89 88 67 42
110 110 102 97 98 104 108 106 106 109 119 135 138 141 139 138 140 141 133 119 112 110 105 89 85 95 86 71 79 97 103 89 68 48 44 53 59 50 63 90 96 85 65
91 95 99 95 101 107 105 100 94 97 113 116 109 112 117 128 130 131 124 120 114 102 94 90 75 75 78 69 69 89 103 110 95 68 44 38 53 61 66 81 85 95 96
95 99 100 94 92 102 109 111 117 133 111 105 104 103 105 113 116 120 115 113 114 106 97 92 80 60 62 70 70 78 86 97 100 87 61 56 66 69 71 71 68 69 72
102 102 103 94 79 89 113 123 134 125 117 112 107 103 101 95 102 114 115 111 106 106 108 108 100 71 55 62 69 83 87 87 90 86 78 71 69 66 62 57 60 66 69
113 111 103 95 82 73 93 109 115 118 116 110 105 103 99 93 86 88 94 104 112 115 115 113 111 98 71 58 60 72 78 79 78 76 69 68 66 62 52 48 50 52 62
108 107 105 100 90 78 75 84 98 108 108 107 106 101 97 104 94 79 64 81 77 111 132 134 131 127 107 60 86 107 95 96 97 92 73 62 58 54 48 46 40 39 44
111 101 96 96 90 83 76 74 86 109 116 112 111 114 113 114 112 105 80 53 63 64 72 83 101 90 99 104 93 89 89 91 97 91 81 74 69 67 64 60 46 40 41